Погода в Кунграде

Погода в Кунграде : погода сейчас, прогноз погоды и архив. Всё, что Вы хотите узнать о погоде в Кунграде!

Хотите узнать прогноз погоды в Кунграде? Тогда Вам сюда: Погода в Кунграде

Поиск расширенной информации на нашем сайте:

Полезная информация: веник сорго

Другие новости

Новости СМИ2

Главная страница сайта

Новости сайта

03.07.2017

Напоминаем, что на нашем специализированном сайте Метеоцентр.Азия вы можете получить высокодетализированные автоматические прогнозы погоды по пунктам России, СНГ и мира в авиационном формате (включающие направление и скорость ветра, видимость, явления погоды, количество и форму облачности, нижнюю и верхнюю границу облачности).

Рекомендуем: купоны airbnb 2017

Погода в Кунграде - сегодня

Время (UTC), дата Ветер
(°,м/с) 
Видим.   Явления Облачность Т
(°С)
Тd
(°С)
f(%) Тe
(°С)
Pmin
(гПа)
dP
(гПа)
Po
(мм)
O2
(г/м3)
Тmin Tmax R s Состояние
почвы
09 19.07.17 240 (ЮЗ) 20000 м    3/3 1000 м 
[Cu hum]
+36.4 +8.6 18 +36  1014.2  -1  755  267           
12 19.07.17 020 (С) 20000 м    3/3 1000 м 
[Cu hum]
+37.3 +4.1 13 +37  1012.3  -1.9  754  267           
15 19.07.17 040 (СВ) 20000 м    ясно 
+34.9 +7.1 18 +35  1011.6  -0.7  754  268    +38.8       
18 19.07.17 тихо ()   20000 м    ясно 
+25.6 +10.4 38 +27  1013.2  1.3  755  276    +38.8       
21 19.07.17 040 (СВ) 20000 м    ясно 
+25 +11.7 43 +28  1012.8  -0.4  754  276           
00 20.07.17 060 (СВ) 20000 м    ясно 
+24 +12.3 48 +28  1011.4  -1.3  753  277           
03 20.07.17 070 (В) 20000 м    ясно 
+25.5 +10.5 39 +27  1011.8  0.5  752  275           
06 20.07.17 070 (В) 20000 м    ясно 
+35 +8.6 20 +35  1011.7  0.1  754  268  +22.6         
09 20.07.17 040 (СВ) 20000 м    ясно 
+37.4 +5.8 14 +37  1010.8  -0.8  753  266           
12 20.07.17 070 (В) 20000 м    4/0 верхняя 
[Ci sp]
+37.8 +6.1 14 +38  1009.5  -1.3  752  265           
15 20.07.17 090 (В) 20000 м    4/0 верхняя 
[Ci sp]
+35.2 +7.1 18 +35  1009.7  0.1  752  267    +38.6       
18 20.07.17 090 (В) 20000 м    ясно 
+27.2 +9.5 33 +28  1011  1.2  753  274    +38.6       
21 20.07.17 060 (СВ) 20000 м    ясно 
+24.2 +5 29 +24  1011.7  0.6  753  278           
00 21.07.17 060 (СВ) 20000 м    ясно 
+22.4 +9.9 45 +23  1011.4  0.3  753  279           
03 21.07.17 060 (СВ) 20000 м    ясно 
+26 +8.5 33 +26  1011.9  0.5  754  276           
06 21.07.17 080 (В) 20000 м    ясно 
+35.4 +5.9 16 +35  1011.8  0.1  754  268  +22         
09 21.07.17 040 (СВ) 20000 м    ясно 
+37.8 +7 15 +38  1011.2  -0.5  753  266           
12 21.07.17 080 (В) 20000 м    ясно 
+38.4 +7.3 15 +38  1010.4  -0.8  753  265           
15 21.07.17 040 (СВ) н/о    н/о 
+35.7 +8.7 19 +36  1010.6  -0.8  752  267    +39.1  0.0     
18 21.07.17 060 (СВ) 20000 м    ясно 
+28.8 +11.8 35 +32  1010.8  -0.1  753  272    +39.2       
21 21.07.17 030 (СВ) 20000 м    ясно 
+25.4 +13.3 47 +31  1011.1  0.3  753  275           
00 22.07.17 360 (С) 20000 м    ясно 
+21 +13.7 63 +27  1016  0.3  753  279           
03 22.07.17 340 (С) 20000 м    ясно 
+26.2 +17.3 58 +39  1011.6  0.3  751  272           
06 22.07.17 330 (СЗ) 20000 м    ясно 
+36.5 +10.3 21 +38  1012.7  1.2  754  266    +34.6      очень
сухая
с трещинами 
09 22.07.17 250 (З) 20000 м    ясно 
+39.2 +8 15 +39  1012.1  -0.6  754  264           
Время (UTC), дата Ветер
(°,м/с) 
Видим.   Явления Облачность Т
(°С)
Тd
(°С)
f(%) Тe
(°С)
Pmin
(гПа)
dP
(гПа)
Po
(мм)
O2
(г/м3)
Тmin Tmax R s Состояние
почвы

Для получения пояснительной информации подведите курсор к названию столбца.

ПОГОДА в Кунграде - архив

Всё, что Вы хотите узнать о погоде в Кунграде - удобно и подробно!

Выберите нужную дату (начиная с 1 января 2015* года) и нажмите кнопку "Найти".
Будут отображены архивные сводки погоды по пункту Кунград, начиная с указанной даты.


Отображать данные в формате CSV (для использования в таблицах Excel)


Внимание! Наш архив погоды предназначен исключительно для личного некоммерческого использования в познавательных целях. Если Вам необходимы официальные справки о состоянии погоды (для производственных, юридических, коммерческих и т.п. целей), обращайтесь в органы Росгидромета.

*Примечание: данная дата относится к архиву по метеостанциям СССР (Россия, СНГ, Балтия).
Архив по метеостанциям Зарубежной Европы и Азии (кроме Китая) хранится 10 дней, по другим регионам земного шара (Китай, Африка, Америка, Австралия, Океания) - 1 день.

Кунград - район местоположения метеостанции


Название, широта, долгота, высота метеостанции:
Кунград 43.1°ш. 58.9°д. 64 м над ур. моря [Узбекистан]

Дополнительная информация

В oтличие oт бoльшинства пoгoдных сайтoв мы публикуем пoдрoбную метеoинфoрмацию в детальнoм прoфессиoнальнoм фoрмате.

Характеристики температуры и влажнoсти вoздуха измеряются на высoте 2 м в тени вдали oт зданий и деревьев.
Скoрoсть ветра измеряется на высoте 10 м (на урoвне рoста челoвека скoрoсть ветра ниже в 1.5-2 раза). Если метеoстанция нахoдится в гoрoде или в лесу, тo скoрoсть ветра занижена на 2-4 м/с пo сравнению с oткрытым местoм. Скoрoсть ветра над акватoриями крупных рек и oзёр, а также на вершинах хoлмoв на 2-5 м/с выше, чем в oбычных услoвиях.
Атмoсфернoе давление в разных тoчках местнoсти мoжет значительнo oтличаться oт давления на метеoстанции, в зависимoсти oт услoвий рельефа (при пoдъёме на 10 м давление пoнижается примернo на 1 мм рт.ст.).